Wind_Speed
26 26 24 22 20 18 16 15 14 14 19 17 15 15 15 13 11 11 10 10 9 7 7 7 8 8 8 8 9 9 10 9 8 8 7 7 7 6 6 6 7 6 5 4
28 26 24 23 23 22 21 19 18 17 21 20 18 17 17 16 14 13 12 11 11 9 7 8 8 8 8 9 9 10 10 9 8 8 8 7 7 7 7 6 6 6 6 5
28 25 26 26 26 25 24 22 19 20 21 21 19 18 18 17 16 16 14 13 12 12 9 8 9 9 9 9 9 9 9 9 8 8 7 7 8 7 7 7 7 6 6 5
28 27 28 28 28 26 25 23 22 22 22 21 19 18 19 18 18 17 16 14 13 13 12 10 9 9 9 9 9 9 9 9 9 8 8 8 8 8 8 9 8 7 7 6
29 29 30 30 28 27 26 24 25 24 23 22 21 19 18 20 20 17 16 15 14 14 13 11 10 9 9 9 9 9 9 9 9 9 8 8 8 9 9 9 9 8 8 8
29 30 30 29 29 29 28 26 25 25 24 25 22 21 20 20 21 19 17 17 15 15 14 12 11 10 10 9 9 9 9 9 10 10 9 9 10 10 11 11 11 10 10 9
29 30 30 29 29 30 30 27 25 25 25 24 21 22 19 18 20 19 18 17 17 16 15 14 12 11 10 10 10 10 10 10 10 10 10 11 11 12 12 12 12 11 10 10
27 28 29 28 29 29 29 28 26 22 20 19 19 21 20 20 20 19 18 18 18 18 17 16 14 12 11 11 11 11 11 11 11 11 11 12 12 12 12 13 12 12 11 11
24 25 26 28 27 28 28 29 26 23 19 17 17 18 20 22 23 22 20 20 19 18 18 17 16 15 13 13 12 12 12 12 12 12 12 12 12 12 13 12 12 12 12 12
24 24 24 26 27 29 28 26 27 26 24 20 17 18 21 23 24 23 21 19 17 18 19 18 18 16 15 14 12 12 13 13 13 13 13 13 13 13 13 13 12 12 12 11
26 24 22 26 27 26 28 28 27 26 26 22 18 18 19 23 23 21 19 20 19 19 19 19 17 17 15 13 13 13 13 13 13 13 14 14 14 15 14 14 13 14 13 12
28 26 23 25 24 24 26 28 28 28 28 27 22 19 21 22 22 20 20 21 22 21 19 19 18 17 16 15 14 14 14 14 14 14 14 15 15 15 15 15 15 15 13 12
30 29 26 24 25 26 27 28 29 29 28 27 24 23 23 21 20 20 21 21 21 20 20 20 19 18 18 16 15 15 15 14 14 15 15 15 15 15 15 15 15 15 14 13
30 30 28 23 23 24 25 27 28 29 29 27 26 24 24 22 21 21 21 21 21 21 21 20 18 18 18 18 17 16 15 15 15 15 16 16 15 14 14 15 15 14 14 14
29 30 30 26 22 21 23 26 27 29 28 27 25 24 24 23 24 24 24 23 23 22 22 21 19 18 19 18 17 16 16 15 16 16 15 15 15 16 15 16 16 16 16 15
30 30 30 28 24 22 22 22 25 26 27 27 25 24 26 26 26 26 26 25 24 23 22 22 21 20 20 18 17 17 17 17 17 16 16 16 17 17 17 17 17 18 17 17
28 29 29 28 26 24 23 24 24 26 28 28 28 27 28 29 29 30 29 26 25 25 24 23 21 20 20 19 18 18 18 18 17 17 17 18 18 18 18 19 19 18 18 18
27 28 27 26 25 26 24 23 24 25 27 28 30 30 30 31 29 30 29 27 27 26 24 23 23 22 21 20 20 19 19 19 19 19 19 19 19 19 19 19 19 19 20 19
28 27 27 26 25 24 22 23 24 25 27 28 28 29 31 30 29 30 29 28 27 26 25 24 24 24 23 22 22 21 21 20 19 20 20 20 20 20 20 20 20 20 20 20
28 29 28 28 26 23 24 24 25 26 28 30 31 32 31 31 32 31 30 30 28 27 26 26 26 25 25 25 24 23 22 22 21 21 21 21 21 20 20 21 21 21 21 21
29 29 30 29 27 24 24 25 25 27 29 29 29 29 30 30 31 32 31 30 29 29 28 27 27 26 26 26 26 25 25 24 23 22 21 22 22 22 22 23 22 23 22 22
28 28 29 30 28 26 26 25 27 28 28 28 28 28 29 30 31 32 32 30 30 29 29 28 28 28 27 27 27 27 26 25 24 24 23 23 23 24 24 24 23 23 23 23
28 28 28 30 31 30 30 28 28 27 28 28 27 27 27 29 30 30 31 29 28 28 29 29 29 29 29 28 28 27 26 26 25 25 25 25 24 25 26 25 24 24 24 24
31 31 31 32 32 31 30 29 28 27 28 27 27 27 27 28 28 28 28 28 29 28 29 29 30 30 29 29 28 27 27 26 26 26 26 25 26 26 26 25 25 25 25 24
31 32 32 32 32 31 30 29 27 26 27 27 27 26 27 28 27 27 28 28 29 28 28 29 29 29 29 29 28 27 27 27 27 27 27 27 26 26 26 26 25 25 25 25
34 32 32 34 33 31 29 29 28 27 27 27 27 27 27 28 27 27 27 27 28 28 28 29 29 28 28 28 28 28 27 27 27 27 26 26 26 25 26 25 25 26 26 26
Wind_Direction
233 232 230 230 230 221 216 220 225 232 244 249 250 249 254 257 265 277 284 292 301 310 323 333 340 345 350 349 347 347 347 347 345 344 345 342 336 330 322 322 321 316 302 294
232 231 230 227 226 223 218 216 217 226 239 248 248 246 252 256 249 263 276 285 292 300 312 319 326 332 337 338 338 339 342 342 341 339 337 337 334 331 326 323 322 316 308 300
232 230 229 227 226 226 222 219 219 224 237 247 249 247 251 252 247 254 266 274 280 287 294 304 313 320 324 327 331 334 339 338 335 337 335 333 332 329 326 324 321 319 313 303
230 228 229 228 227 227 224 221 221 224 233 240 244 247 252 254 253 257 264 268 272 278 288 296 303 311 315 319 325 330 332 334 332 332 330 326 326 330 327 328 316 306 306 304
230 229 231 229 228 227 224 224 224 226 232 237 241 242 249 254 254 253 261 266 269 273 281 287 296 303 310 313 319 325 327 326 326 328 327 323 323 324 325 321 319 309 306 300
229 232 232 230 227 227 225 226 229 228 232 239 237 237 241 251 261 258 260 264 266 268 273 277 286 295 303 309 315 321 323 322 322 320 319 319 317 319 320 319 315 313 306 302
229 232 233 230 228 228 226 225 229 230 232 240 239 237 235 244 255 253 255 260 261 262 266 271 280 288 293 300 307 313 314 313 315 315 313 313 311 312 315 318 314 311 305 302
232 233 234 230 228 229 228 226 225 227 236 245 242 239 236 234 244 249 252 254 258 261 262 268 274 281 284 289 297 304 305 307 308 311 310 308 307 308 309 313 311 305 302 299
227 232 235 233 227 225 226 224 222 223 221 234 239 242 239 241 243 246 250 249 252 259 260 262 270 275 278 280 287 294 297 302 303 304 305 305 305 306 306 306 306 305 303 302
218 224 229 232 228 223 223 225 217 216 220 226 230 239 247 249 246 244 249 250 245 253 257 262 269 272 273 275 282 288 291 296 298 299 300 302 303 305 304 303 304 303 304 304
214 219 221 229 228 224 220 220 220 219 217 220 227 231 240 250 253 251 247 248 245 248 254 260 263 265 268 275 279 283 286 291 294 295 296 298 298 302 303 304 304 305 302 300
211 214 216 229 230 225 223 220 219 219 218 215 221 233 235 236 244 248 245 243 245 246 248 255 261 264 265 271 273 279 284 285 289 292 293 293 295 298 300 301 302 304 303 300
213 213 211 220 229 225 222 221 218 221 221 220 223 232 240 243 244 245 246 248 246 245 244 250 256 261 264 268 272 276 280 280 283 288 292 293 296 296 297 297 300 301 301 299
214 215 210 215 228 229 225 222 219 219 220 222 226 233 241 244 245 246 245 246 247 244 244 248 253 258 261 263 268 272 275 277 281 285 290 296 298 297 295 295 297 298 296 294
214 213 209 206 216 226 227 223 220 221 220 223 229 232 237 240 245 246 246 246 246 243 243 246 250 257 260 260 263 268 272 276 278 282 286 292 297 298 297 296 295 295 294 292
214 212 209 208 211 217 226 223 220 222 222 222 225 229 231 238 246 247 247 246 245 244 244 245 249 252 257 259 263 265 268 273 277 280 283 288 294 295 295 297 296 295 293 292
218 216 211 211 216 218 220 223 222 219 223 223 224 228 234 236 239 243 246 245 244 243 242 243 247 249 253 258 261 265 267 271 274 278 282 286 290 291 292 294 295 295 294 295
219 217 215 211 215 222 223 221 221 222 221 222 224 228 233 235 239 242 244 245 242 243 243 243 247 248 251 255 259 264 268 271 275 279 283 287 290 292 292 292 294 294 294 294
220 217 213 210 215 223 225 223 220 221 222 224 224 228 234 236 240 243 243 244 245 244 244 245 247 249 250 253 256 260 266 270 273 277 281 285 288 291 291 290 292 293 293 295
219 217 215 211 212 220 225 227 221 224 227 228 228 231 234 236 238 242 244 245 246 244 245 246 248 249 250 252 255 259 263 268 272 276 280 283 286 288 291 291 291 293 292 291
220 218 217 214 213 220 225 229 227 227 231 232 234 237 237 236 238 241 243 244 245 244 245 246 248 248 249 252 255 257 261 266 270 274 279 282 282 284 288 290 289 290 291 290
222 220 218 217 216 223 227 226 228 230 233 235 234 237 238 238 239 241 242 243 243 242 244 245 247 248 250 252 255 257 260 263 267 272 276 280 281 281 284 286 287 289 290 290
219 219 218 219 220 224 228 230 233 235 235 236 236 236 237 239 240 242 244 243 243 242 244 244 245 248 249 252 254 256 259 260 264 269 274 278 279 280 282 283 285 288 289 288
219 220 222 224 224 227 230 231 234 238 238 234 236 234 235 239 241 242 243 242 243 244 245 246 246 247 248 251 254 255 258 261 264 268 271 275 279 282 283 284 284 285 285 285
221 222 225 227 227 229 232 234 235 236 235 235 235 236 237 239 240 244 244 242 242 243 245 246 247 249 251 252 253 255 258 261 264 266 270 274 277 280 278 278 280 282 283 283
225 225 226 227 228 229 231 234 233 234 233 234 236 238 239 239 240 242 243 243 243 243 245 246 247 249 250 252 254 257 258 261 265 266 269 273 275 277 278 278 279 280 281 282
Height
5877 5882 5885 5889 5893 5897 5901 5905 5909 5912 5910 5910 5910 5910 5909 5908 5910 5911 5911 5910 5910 5910 5910 5910 5909 5909 5908 5908 5907 5906 5905 5905 5904 5904 5903 5903 5902 5902 5902 5901 5901 5901 5900 5901
5873 5877 5882 5885 5889 5892 5896 5900 5905 5908 5907 5908 5908 5908 5909 5909 5908 5909 5909 5910 5909 5909 5909 5909 5909 5909 5908 5907 5907 5906 5905 5905 5904 5903 5903 5903 5902 5902 5901 5901 5900 5900 5900 5900
5868 5874 5876 5880 5883 5887 5891 5896 5900 5904 5904 5904 5906 5906 5906 5906 5904 5907 5908 5908 5908 5908 5908 5908 5908 5908 5908 5907 5906 5906 5905 5904 5904 5903 5903 5902 5902 5902 5901 5901 5900 5900 5900 5899
5862 5867 5870 5874 5878 5882 5886 5891 5895 5898 5899 5900 5903 5904 5904 5904 5905 5905 5906 5906 5907 5907 5907 5907 5907 5907 5907 5906 5906 5905 5905 5904 5903 5903 5902 5902 5902 5901 5901 5900 5899 5899 5899 5899
5857 5861 5864 5869 5874 5878 5882 5886 5889 5892 5895 5897 5899 5901 5902 5902 5901 5902 5903 5904 5905 5905 5905 5906 5906 5906 5906 5905 5905 5904 5904 5903 5902 5902 5902 5901 5901 5901 5900 5899 5898 5898 5898 5898
5852 5855 5859 5864 5868 5872 5877 5880 5884 5887 5890 5892 5895 5897 5899 5899 5898 5898 5900 5901 5902 5903 5903 5903 5904 5904 5904 5904 5904 5903 5903 5902 5902 5901 5901 5900 5900 5899 5899 5898 5898 5897 5896 5896
5846 5849 5853 5858 5862 5866 5871 5876 5879 5882 5885 5887 5891 5892 5895 5897 5896 5894 5895 5897 5899 5900 5901 5901 5902 5902 5902 5902 5902 5902 5902 5901 5901 5900 5900 5899 5898 5898 5897 5896 5896 5895 5895 5894
5841 5845 5848 5852 5857 5862 5866 5871 5876 5880 5883 5886 5887 5888 5891 5892 5892 5891 5892 5895 5896 5897 5898 5898 5898 5899 5900 5900 5900 5900 5900 5900 5899 5899 5898 5898 5897 5896 5895 5895 5894 5893 5893 5892
5837 5841 5844 5847 5852 5857 5861 5865 5871 5876 5880 5883 5885 5886 5887 5887 5888 5889 5890 5892 5892 5894 5894 5894 5896 5897 5897 5897 5897 5898 5898 5898 5897 5897 5896 5896 5895 5894 5893 5893 5892 5891 5890 5890
5832 5836 5839 5842 5847 5851 5857 5861 5865 5870 5874 5878 5882 5883 5883 5883 5884 5886 5887 5887 5889 5891 5891 5892 5893 5893 5894 5894 5894 5895 5895 5895 5895 5895 5894 5894 5893 5892 5891 5890 5889 5889 5888 5887
5827 5831 5836 5838 5841 5846 5851 5856 5860 5864 5869 5874 5877 5880 5879 5878 5880 5881 5883 5884 5886 5888 5888 5889 5889 5890 5891 5891 5892 5893 5892 5893 5893 5892 5892 5892 5891 5890 5889 5888 5887 5886 5885 5884
5821 5826 5831 5834 5837 5842 5846 5850 5855 5859 5863 5867 5871 5876 5873 5872 5874 5876 5878 5879 5881 5883 5885 5885 5886 5886 5887 5888 5889 5890 5890 5890 5889 5889 5889 5888 5888 5887 5887 5886 5885 5884 5883 5882
5815 5820 5825 5829 5834 5836 5840 5844 5849 5854 5858 5861 5866 5870 5866 5867 5869 5870 5873 5875 5876 5879 5881 5882 5882 5884 5884 5886 5886 5887 5887 5887 5886 5886 5886 5885 5884 5884 5884 5883 5882 5881 5880 5880
5810 5814 5821 5826 5828 5831 5834 5838 5843 5848 5851 5856 5860 5863 5863 5863 5864 5866 5868 5870 5872 5874 5877 5877 5878 5880 5881 5882 5883 5883 5883 5883 5883 5883 5883 5882 5881 5881 5880 5879 5879 5878 5878 5877
5804 5809 5814 5818 5823 5825 5829 5833 5837 5841 5846 5852 5854 5857 5858 5858 5859 5860 5863 5866 5868 5870 5872 5873 5875 5876 5877 5878 5879 5880 5880 5880 5880 5880 5880 5879 5878 5877 5877 5876 5875 5875 5874 5874
5798 5803 5808 5812 5816 5820 5824 5827 5832 5836 5841 5845 5848 5851 5853 5853 5854 5855 5857 5861 5863 5865 5867 5869 5871 5872 5874 5874 5875 5876 5877 5877 5877 5877 5876 5876 5875 5874 5873 5873 5872 5871 5871 5870
5794 5798 5803 5808 5812 5815 5819 5823 5826 5831 5834 5839 5842 5845 5845 5846 5847 5849 5851 5854 5857 5860 5862 5864 5866 5868 5870 5870 5872 5872 5873 5873 5873 5873 5872 5872 5871 5871 5870 5870 5869 5868 5867 5866
5789 5793 5798 5803 5807 5810 5816 5818 5821 5824 5828 5831 5834 5837 5838 5839 5841 5842 5845 5847 5851 5854 5857 5859 5861 5863 5865 5866 5867 5868 5869 5869 5869 5869 5868 5868 5867 5866 5866 5865 5865 5864 5863 5862
5783 5788 5793 5797 5801 5804 5809 5812 5815 5818 5821 5824 5826 5829 5831 5835 5836 5837 5840 5842 5845 5849 5852 5854 5856 5858 5860 5861 5862 5863 5864 5864 5864 5864 5864 5864 5863 5862 5862 5861 5860 5859 5858 5858
5778 5783 5788 5792 5796 5800 5804 5806 5808 5812 5814 5817 5819 5823 5825 5828 5830 5832 5834 5837 5839 5843 5846 5848 5850 5852 5854 5855 5857 5858 5859 5859 5859 5860 5859 5859 5859 5858 5858 5857 5856 5855 5854 5853
5772 5777 5781 5785 5790 5794 5797 5799 5802 5807 5808 5810 5813 5816 5819 5821 5824 5825 5827 5831 5833 5836 5839 5841 5844 5846 5848 5849 5851 5852 5854 5854 5854 5855 5855 5854 5854 5854 5853 5852 5851 5850 5848 5847
5767 5772 5776 5780 5784 5789 5789 5792 5795 5797 5801 5804 5806 5809 5812 5815 5816 5818 5820 5824 5826 5829 5832 5835 5837 5839 5841 5843 5845 5846 5848 5849 5849 5849 5849 5849 5849 5848 5847 5846 5845 5845 5843 5842
5761 5766 5770 5774 5778 5780 5782 5786 5788 5791 5795 5798 5801 5803 5805 5808 5810 5812 5813 5817 5819 5822 5825 5828 5831 5833 5835 5836 5838 5840 5841 5842 5843 5843 5844 5843 5843 5842 5841 5840 5840 5839 5838 5837
5754 5759 5763 5767 5770 5774 5776 5779 5782 5785 5788 5792 5794 5797 5799 5801 5803 5806 5808 5811 5813 5816 5819 5821 5823 5825 5826 5829 5831 5833 5834 5835 5836 5837 5837 5837 5837 5836 5834 5834 5834 5833 5832 5831
5747 5752 5756 5760 5763 5767 5770 5773 5777 5780 5782 5784 5787 5790 5792 5795 5798 5800 5802 5804 5806 5809 5812 5814 5816 5817 5819 5822 5824 5826 5827 5829 5830 5830 5830 5830 5830 5829 5828 5828 5827 5827 5826 5825
5741 5746 5749 5753 5756 5760 5764 5767 5771 5773 5776 5778 5781 5784 5787 5789 5792 5794 5796 5798 5800 5802 5805 5807 5809 5812 5814 5816 5818 5819 5820 5821 5823 5823 5823 5823 5823 5823 5822 5821 5821 5820 5819 5818